GFSMA_prec_pwat_000.txt.gz
Precipitable_Water
0.82 0.88 0.88 0.90 0.89 0.91 0.88 0.85 0.86 0.84 0.80 0.78 0.80 0.74 0.72 0.73 0.69 0.68 0.64 0.65 0.65 0.62 0.59 0.56 0.59 0.62 0.62 0.67 0.75 0.83 0.87 0.88 0.89 0.92 0.95 1.10 1.16 1.27 1.37 1.40 1.41 1.38 1.35
0.91 0.95 0.94 0.90 0.88 0.91 0.90 0.87 0.85 0.84 0.81 0.81 0.79 0.75 0.75 0.77 0.78 0.76 0.73 0.68 0.66 0.63 0.61 0.57 0.55 0.55 0.57 0.61 0.64 0.72 0.78 0.85 0.86 0.87 0.93 0.99 1.06 1.25 1.29 1.40 1.43 1.40 1.36
0.97 0.99 0.91 0.84 0.80 0.79 0.80 0.79 0.78 0.80 0.78 0.77 0.73 0.72 0.77 0.74 0.79 0.73 0.67 0.63 0.67 0.63 0.61 0.58 0.57 0.56 0.55 0.54 0.58 0.62 0.71 0.75 0.81 0.85 0.87 0.92 1.01 1.20 1.31 1.31 1.38 1.41 1.40
0.98 0.93 0.86 0.80 0.79 0.77 0.76 0.75 0.70 0.68 0.70 0.70 0.68 0.68 0.70 0.72 0.71 0.70 0.66 0.64 0.64 0.64 0.68 0.68 0.66 0.65 0.60 0.60 0.57 0.58 0.64 0.69 0.75 0.78 0.82 0.86 0.95 1.06 1.25 1.25 1.29 1.37 1.49
0.92 0.85 0.79 0.77 0.75 0.76 0.70 0.67 0.63 0.61 0.60 0.58 0.58 0.58 0.59 0.61 0.61 0.61 0.62 0.70 0.71 0.71 0.71 0.69 0.71 0.70 0.69 0.66 0.65 0.63 0.58 0.61 0.64 0.70 0.76 0.79 0.83 0.93 1.07 1.20 1.29 1.33 1.36
0.81 0.77 0.76 0.76 0.76 0.69 0.64 0.63 0.57 0.56 0.55 0.54 0.50 0.46 0.45 0.45 0.49 0.58 0.60 0.61 0.65 0.68 0.69 0.69 0.68 0.67 0.70 0.71 0.70 0.68 0.69 0.66 0.63 0.67 0.68 0.74 0.77 0.81 0.87 1.03 1.14 1.28 1.39
0.80 0.77 0.73 0.70 0.67 0.63 0.61 0.58 0.56 0.53 0.50 0.48 0.41 0.38 0.39 0.39 0.43 0.45 0.53 0.55 0.61 0.64 0.66 0.66 0.72 0.71 0.69 0.69 0.68 0.73 0.70 0.70 0.67 0.67 0.67 0.67 0.70 0.73 0.79 0.85 0.96 1.12 1.30
0.71 0.64 0.63 0.62 0.61 0.58 0.57 0.56 0.55 0.50 0.48 0.51 0.43 0.39 0.30 0.33 0.39 0.46 0.49 0.50 0.53 0.55 0.57 0.63 0.69 0.71 0.72 0.67 0.66 0.72 0.70 0.73 0.71 0.70 0.69 0.65 0.63 0.65 0.67 0.75 0.81 0.89 1.07
0.63 0.60 0.58 0.56 0.55 0.55 0.52 0.52 0.52 0.50 0.46 0.48 0.48 0.43 0.34 0.32 0.38 0.43 0.42 0.45 0.47 0.48 0.51 0.52 0.54 0.58 0.62 0.67 0.68 0.66 0.72 0.74 0.70 0.70 0.73 0.68 0.61 0.57 0.62 0.64 0.72 0.77 0.80
0.55 0.54 0.55 0.54 0.54 0.53 0.51 0.52 0.51 0.46 0.42 0.37 0.44 0.48 0.49 0.45 0.33 0.32 0.43 0.42 0.42 0.38 0.40 0.44 0.43 0.46 0.55 0.60 0.64 0.70 0.65 0.69 0.77 0.72 0.74 0.72 0.63 0.56 0.57 0.62 0.64 0.67 0.72
0.58 0.56 0.53 0.54 0.53 0.50 0.46 0.43 0.44 0.44 0.45 0.43 0.40 0.40 0.39 0.41 0.41 0.35 0.30 0.31 0.37 0.38 0.36 0.37 0.36 0.40 0.47 0.58 0.65 0.67 0.72 0.67 0.77 0.77 0.72 0.70 0.64 0.61 0.60 0.59 0.67 0.69 0.65
0.54 0.55 0.58 0.52 0.49 0.46 0.41 0.40 0.40 0.40 0.41 0.41 0.41 0.40 0.37 0.35 0.34 0.34 0.31 0.28 0.30 0.32 0.35 0.35 0.36 0.34 0.38 0.47 0.59 0.65 0.64 0.70 0.77 0.78 0.74 0.70 0.68 0.63 0.64 0.64 0.64 0.70 0.77
0.59 0.52 0.52 0.48 0.47 0.43 0.37 0.37 0.36 0.35 0.36 0.36 0.37 0.37 0.39 0.40 0.42 0.38 0.36 0.33 0.31 0.31 0.33 0.36 0.36 0.35 0.36 0.40 0.45 0.56 0.61 0.61 0.61 0.78 0.76 0.74 0.68 0.64 0.61 0.60 0.63 0.69 0.72
0.55 0.51 0.48 0.44 0.42 0.39 0.33 0.32 0.29 0.28 0.28 0.27 0.28 0.31 0.33 0.36 0.40 0.40 0.39 0.37 0.31 0.32 0.33 0.32 0.39 0.37 0.34 0.37 0.42 0.49 0.57 0.61 0.61 0.65 0.70 0.74 0.73 0.69 0.62 0.59 0.60 0.63 0.68
0.47 0.48 0.46 0.40 0.36 0.31 0.30 0.28 0.27 0.25 0.24 0.24 0.23 0.24 0.27 0.30 0.34 0.38 0.40 0.39 0.35 0.28 0.28 0.34 0.35 0.39 0.35 0.37 0.40 0.43 0.52 0.55 0.62 0.63 0.69 0.72 0.70 0.69 0.70 0.64 0.59 0.58 0.64
0.51 0.50 0.48 0.35 0.30 0.29 0.28 0.28 0.25 0.23 0.23 0.24 0.25 0.25 0.23 0.23 0.23 0.25 0.27 0.35 0.38 0.35 0.29 0.34 0.37 0.37 0.36 0.35 0.36 0.37 0.42 0.45 0.53 0.62 0.63 0.66 0.61 0.59 0.57 0.61 0.62 0.57 0.58
0.53 0.47 0.41 0.38 0.33 0.28 0.25 0.24 0.24 0.23 0.24 0.23 0.23 0.23 0.22 0.23 0.21 0.20 0.20 0.20 0.26 0.34 0.32 0.33 0.36 0.36 0.35 0.33 0.32 0.34 0.39 0.41 0.48 0.56 0.56 0.61 0.60 0.58 0.55 0.50 0.47 0.49 0.51
0.45 0.43 0.41 0.36 0.29 0.25 0.24 0.22 0.22 0.22 0.21 0.21 0.21 0.22 0.22 0.22 0.20 0.20 0.19 0.17 0.17 0.22 0.25 0.28 0.31 0.31 0.31 0.34 0.33 0.32 0.33 0.37 0.43 0.49 0.56 0.57 0.57 0.49 0.46 0.46 0.43 0.41 0.42
0.42 0.46 0.33 0.28 0.24 0.23 0.22 0.23 0.23 0.22 0.23 0.24 0.25 0.23 0.22 0.21 0.19 0.18 0.19 0.19 0.19 0.18 0.24 0.23 0.24 0.30 0.29 0.30 0.30 0.32 0.30 0.33 0.37 0.42 0.47 0.52 0.52 0.50 0.46 0.43 0.40 0.39 0.38
0.42 0.35 0.28 0.26 0.25 0.24 0.23 0.24 0.23 0.23 0.24 0.24 0.24 0.24 0.23 0.21 0.20 0.21 0.23 0.24 0.23 0.21 0.21 0.21 0.20 0.23 0.25 0.25 0.25 0.26 0.27 0.30 0.31 0.37 0.40 0.42 0.41 0.47 0.46 0.43 0.41 0.39 0.37
0.35 0.29 0.27 0.26 0.25 0.23 0.24 0.25 0.24 0.24 0.24 0.23 0.23 0.23 0.23 0.22 0.23 0.25 0.27 0.28 0.28 0.26 0.24 0.22 0.19 0.20 0.19 0.18 0.18 0.21 0.21 0.25 0.28 0.33 0.35 0.36 0.37 0.37 0.40 0.38 0.38 0.38 0.37
0.28 0.27 0.29 0.26 0.22 0.24 0.26 0.25 0.25 0.23 0.21 0.22 0.23 0.24 0.23 0.23 0.23 0.25 0.26 0.27 0.28 0.26 0.25 0.25 0.23 0.21 0.20 0.19 0.19 0.18 0.18 0.19 0.19 0.28 0.29 0.33 0.35 0.34 0.36 0.37 0.38 0.39 0.39
0.33 0.31 0.26 0.25 0.23 0.26 0.25 0.25 0.25 0.23 0.23 0.24 0.24 0.24 0.23 0.23 0.24 0.25 0.25 0.25 0.25 0.26 0.27 0.25 0.22 0.22 0.21 0.21 0.21 0.18 0.18 0.18 0.18 0.24 0.25 0.24 0.34 0.32 0.34 0.35 0.36 0.37 0.37
0.34 0.27 0.26 0.26 0.25 0.25 0.25 0.26 0.26 0.24 0.24 0.25 0.25 0.24 0.24 0.24 0.24 0.24 0.24 0.25 0.25 0.26 0.25 0.25 0.24 0.23 0.22 0.22 0.22 0.20 0.20 0.21 0.23 0.24 0.25 0.19 0.25 0.29 0.33 0.33 0.33 0.34 0.34
0.27 0.28 0.28 0.26 0.24 0.23 0.25 0.25 0.23 0.21 0.21 0.23 0.25 0.25 0.26 0.25 0.25 0.27 0.25 0.22 0.22 0.22 0.25 0.26 0.27 0.27 0.26 0.26 0.26 0.25 0.21 0.20 0.18 0.19 0.23 0.21 0.20 0.20 0.23 0.25 0.29 0.30 0.30
0.29 0.29 0.27 0.24 0.23 0.21 0.22 0.21 0.20 0.19 0.20 0.23 0.25 0.25 0.25 0.25 0.25 0.26 0.25 0.23 0.21 0.21 0.22 0.22 0.22 0.22 0.23 0.23 0.23 0.23 0.23 0.20 0.20 0.19 0.22 0.22 0.20 0.21 0.18 0.21 0.22 0.24 0.27

GFSMA_prec_pwat_003.txt.gz
Precipitable_Water
0.85 0.86 0.88 0.90 0.91 0.91 0.85 0.81 0.83 0.85 0.82 0.82 0.78 0.80 0.80 0.81 0.80 0.79 0.78 0.75 0.68 0.64 0.62 0.63 0.62 0.59 0.62 0.63 0.65 0.69 0.70 0.76 0.82 0.87 0.90 0.93 1.01 1.10 1.22 1.34 1.40 1.46 1.48
0.96 0.96 0.97 0.93 0.89 0.86 0.79 0.76 0.74 0.76 0.75 0.74 0.70 0.71 0.73 0.72 0.75 0.76 0.80 0.79 0.72 0.68 0.70 0.64 0.60 0.56 0.56 0.57 0.61 0.63 0.65 0.66 0.69 0.77 0.81 0.86 0.93 0.98 1.12 1.24 1.32 1.45 1.46
1.00 0.98 0.94 0.90 0.84 0.81 0.77 0.75 0.71 0.70 0.66 0.65 0.63 0.67 0.69 0.68 0.66 0.66 0.68 0.74 0.73 0.70 0.68 0.66 0.68 0.65 0.62 0.60 0.57 0.60 0.64 0.65 0.63 0.64 0.70 0.76 0.79 0.85 0.96 1.02 1.22 1.39 1.45
0.99 0.96 0.89 0.82 0.78 0.75 0.72 0.69 0.65 0.59 0.59 0.57 0.56 0.57 0.57 0.59 0.59 0.65 0.70 0.69 0.68 0.68 0.68 0.72 0.67 0.67 0.70 0.68 0.67 0.63 0.66 0.68 0.70 0.63 0.64 0.69 0.75 0.80 0.85 0.94 1.21 1.32 1.40
0.91 0.86 0.79 0.76 0.73 0.69 0.66 0.61 0.57 0.55 0.53 0.52 0.51 0.52 0.50 0.49 0.48 0.53 0.55 0.61 0.62 0.62 0.61 0.65 0.68 0.70 0.65 0.66 0.70 0.71 0.68 0.68 0.71 0.72 0.68 0.67 0.71 0.75 0.80 0.85 1.08 1.24 1.32
0.81 0.79 0.77 0.72 0.66 0.61 0.58 0.55 0.52 0.52 0.50 0.48 0.46 0.42 0.41 0.41 0.42 0.49 0.47 0.50 0.52 0.54 0.56 0.59 0.61 0.62 0.65 0.68 0.68 0.68 0.71 0.71 0.71 0.73 0.72 0.71 0.68 0.69 0.71 0.76 0.82 1.04 1.24
0.76 0.69 0.62 0.59 0.60 0.56 0.52 0.50 0.49 0.47 0.46 0.49 0.42 0.40 0.40 0.42 0.42 0.46 0.51 0.51 0.50 0.52 0.54 0.55 0.58 0.60 0.65 0.61 0.64 0.66 0.70 0.74 0.75 0.73 0.74 0.73 0.70 0.67 0.65 0.68 0.74 0.78 0.97
0.63 0.60 0.59 0.56 0.54 0.49 0.48 0.49 0.48 0.44 0.43 0.45 0.39 0.35 0.30 0.34 0.43 0.47 0.48 0.49 0.49 0.51 0.50 0.51 0.52 0.51 0.54 0.62 0.66 0.65 0.67 0.66 0.70 0.76 0.77 0.75 0.72 0.67 0.66 0.63 0.66 0.71 0.75
0.59 0.57 0.55 0.54 0.53 0.51 0.47 0.47 0.47 0.46 0.41 0.46 0.46 0.40 0.31 0.29 0.35 0.40 0.40 0.46 0.44 0.44 0.46 0.46 0.46 0.45 0.44 0.51 0.59 0.68 0.69 0.69 0.63 0.67 0.72 0.75 0.74 0.73 0.66 0.61 0.62 0.66 0.70
0.58 0.56 0.54 0.52 0.50 0.49 0.47 0.46 0.44 0.41 0.38 0.33 0.37 0.38 0.37 0.36 0.27 0.25 0.33 0.32 0.36 0.34 0.34 0.37 0.40 0.38 0.39 0.39 0.46 0.59 0.66 0.65 0.70 0.70 0.69 0.71 0.74 0.73 0.66 0.59 0.59 0.63 0.67
0.55 0.54 0.57 0.57 0.53 0.47 0.45 0.43 0.39 0.33 0.34 0.34 0.34 0.35 0.35 0.34 0.36 0.30 0.23 0.28 0.33 0.32 0.31 0.33 0.36 0.36 0.34 0.37 0.40 0.45 0.59 0.62 0.63 0.74 0.74 0.72 0.68 0.68 0.67 0.64 0.60 0.60 0.67
0.58 0.63 0.58 0.50 0.49 0.46 0.42 0.41 0.38 0.31 0.30 0.30 0.31 0.32 0.32 0.30 0.30 0.30 0.28 0.27 0.27 0.31 0.35 0.35 0.37 0.37 0.36 0.36 0.38 0.39 0.51 0.59 0.64 0.69 0.72 0.74 0.70 0.70 0.70 0.69 0.66 0.64 0.65
0.50 0.47 0.44 0.44 0.44 0.43 0.41 0.38 0.32 0.30 0.28 0.25 0.25 0.24 0.27 0.27 0.29 0.28 0.27 0.26 0.27 0.26 0.29 0.36 0.40 0.42 0.42 0.38 0.37 0.40 0.45 0.55 0.59 0.66 0.71 0.70 0.72 0.69 0.65 0.65 0.61 0.63 0.68
0.40 0.45 0.47 0.47 0.43 0.46 0.40 0.34 0.29 0.28 0.28 0.25 0.21 0.21 0.22 0.23 0.23 0.23 0.23 0.24 0.20 0.23 0.27 0.28 0.36 0.41 0.43 0.38 0.39 0.41 0.42 0.51 0.54 0.57 0.62 0.63 0.68 0.68 0.67 0.63 0.58 0.58 0.61
0.42 0.46 0.50 0.49 0.52 0.46 0.39 0.36 0.31 0.27 0.27 0.25 0.24 0.24 0.23 0.21 0.19 0.19 0.19 0.19 0.20 0.16 0.16 0.25 0.32 0.37 0.42 0.39 0.39 0.39 0.40 0.44 0.47 0.52 0.58 0.64 0.66 0.62 0.66 0.72 0.67 0.62 0.57
0.45 0.46 0.43 0.48 0.43 0.40 0.38 0.32 0.28 0.29 0.25 0.24 0.24 0.23 0.23 0.21 0.20 0.21 0.20 0.19 0.18 0.18 0.15 0.24 0.28 0.35 0.41 0.40 0.36 0.38 0.40 0.43 0.42 0.47 0.56 0.56 0.60 0.63 0.63 0.66 0.65 0.61 0.60
0.43 0.42 0.41 0.39 0.42 0.36 0.31 0.26 0.24 0.25 0.22 0.22 0.23 0.23 0.22 0.23 0.22 0.21 0.21 0.20 0.18 0.18 0.15 0.17 0.22 0.30 0.35 0.36 0.37 0.36 0.37 0.37 0.41 0.41 0.46 0.55 0.56 0.58 0.59 0.60 0.58 0.57 0.61
0.40 0.41 0.43 0.41 0.33 0.28 0.25 0.24 0.24 0.24 0.22 0.21 0.21 0.22 0.22 0.22 0.20 0.21 0.20 0.19 0.18 0.19 0.19 0.16 0.19 0.24 0.27 0.32 0.35 0.37 0.34 0.35 0.36 0.38 0.40 0.44 0.56 0.58 0.56 0.54 0.53 0.49 0.48
0.33 0.37 0.37 0.29 0.25 0.25 0.24 0.23 0.22 0.22 0.22 0.23 0.23 0.23 0.21 0.19 0.19 0.20 0.20 0.21 0.23 0.24 0.23 0.20 0.18 0.24 0.23 0.28 0.30 0.33 0.33 0.33 0.34 0.36 0.38 0.41 0.50 0.56 0.56 0.53 0.48 0.47 0.46
0.35 0.31 0.29 0.24 0.24 0.25 0.24 0.22 0.22 0.22 0.23 0.24 0.23 0.22 0.21 0.21 0.21 0.21 0.21 0.24 0.26 0.26 0.26 0.24 0.21 0.21 0.23 0.22 0.23 0.24 0.25 0.28 0.29 0.33 0.34 0.37 0.43 0.50 0.53 0.49 0.45 0.45 0.42
0.34 0.29 0.26 0.23 0.27 0.25 0.23 0.23 0.23 0.23 0.23 0.22 0.22 0.22 0.23 0.24 0.25 0.24 0.23 0.24 0.24 0.25 0.25 0.24 0.24 0.23 0.22 0.20 0.18 0.20 0.20 0.22 0.24 0.27 0.29 0.32 0.35 0.41 0.42 0.46 0.46 0.44 0.43
0.33 0.22 0.26 0.28 0.26 0.26 0.26 0.25 0.24 0.23 0.23 0.22 0.21 0.22 0.24 0.25 0.24 0.24 0.25 0.26 0.26 0.24 0.23 0.23 0.23 0.23 0.25 0.24 0.23 0.20 0.19 0.16 0.14 0.24 0.25 0.27 0.33 0.33 0.35 0.38 0.41 0.41 0.42
0.30 0.29 0.30 0.26 0.27 0.28 0.27 0.25 0.26 0.25 0.23 0.22 0.21 0.22 0.24 0.25 0.25 0.26 0.25 0.25 0.25 0.25 0.26 0.24 0.23 0.24 0.23 0.24 0.24 0.21 0.19 0.17 0.16 0.17 0.22 0.22 0.28 0.30 0.35 0.34 0.35 0.38 0.38
0.37 0.32 0.27 0.28 0.29 0.28 0.26 0.25 0.24 0.21 0.19 0.19 0.19 0.22 0.24 0.25 0.26 0.25 0.26 0.25 0.25 0.24 0.24 0.25 0.26 0.26 0.25 0.25 0.24 0.23 0.21 0.19 0.20 0.20 0.22 0.18 0.24 0.24 0.29 0.35 0.36 0.34 0.35
0.31 0.28 0.29 0.29 0.27 0.23 0.23 0.21 0.19 0.18 0.18 0.17 0.19 0.23 0.25 0.25 0.25 0.26 0.25 0.23 0.23 0.22 0.23 0.24 0.24 0.26 0.28 0.28 0.28 0.25 0.21 0.19 0.16 0.17 0.21 0.19 0.18 0.19 0.22 0.25 0.30 0.34 0.35
0.28 0.29 0.30 0.28 0.23 0.21 0.20 0.18 0.18 0.18 0.17 0.17 0.20 0.24 0.25 0.25 0.26 0.25 0.24 0.23 0.21 0.21 0.22 0.23 0.23 0.23 0.24 0.23 0.24 0.25 0.23 0.19 0.19 0.17 0.21 0.19 0.18 0.20 0.18 0.23 0.24 0.26 0.28

GFSMA_prec_pwat_006.txt.gz
Precipitable_Water
0.97 0.94 0.92 0.93 0.95 0.93 0.87 0.82 0.77 0.75 0.74 0.73 0.70 0.68 0.68 0.67 0.67 0.67 0.70 0.73 0.77 0.76 0.75 0.70 0.68 0.67 0.69 0.70 0.68 0.65 0.67 0.71 0.75 0.73 0.73 0.80 0.93 1.00 1.10 1.19 1.34 1.39 1.50
1.03 0.98 0.96 0.93 0.90 0.88 0.85 0.80 0.74 0.70 0.69 0.68 0.64 0.64 0.62 0.61 0.60 0.63 0.66 0.66 0.70 0.71 0.72 0.73 0.69 0.66 0.65 0.66 0.73 0.77 0.69 0.66 0.66 0.70 0.71 0.68 0.72 0.83 0.94 1.08 1.23 1.35 1.42
1.04 0.99 0.93 0.90 0.88 0.85 0.81 0.74 0.68 0.65 0.61 0.58 0.54 0.54 0.52 0.51 0.52 0.54 0.57 0.63 0.66 0.67 0.69 0.71 0.71 0.67 0.63 0.65 0.66 0.72 0.78 0.75 0.69 0.66 0.68 0.71 0.70 0.71 0.76 0.90 1.05 1.24 1.35
0.97 0.93 0.90 0.88 0.85 0.75 0.69 0.63 0.61 0.57 0.57 0.52 0.48 0.47 0.46 0.47 0.45 0.51 0.53 0.53 0.54 0.55 0.59 0.63 0.61 0.61 0.67 0.67 0.65 0.67 0.69 0.73 0.77 0.74 0.72 0.70 0.71 0.71 0.70 0.73 0.83 1.01 1.16
0.92 0.85 0.80 0.76 0.72 0.68 0.62 0.58 0.55 0.53 0.48 0.46 0.44 0.46 0.46 0.43 0.43 0.50 0.48 0.47 0.48 0.50 0.51 0.53 0.55 0.55 0.53 0.58 0.65 0.65 0.68 0.74 0.73 0.76 0.78 0.74 0.72 0.70 0.70 0.71 0.72 0.79 0.92
0.80 0.79 0.77 0.70 0.63 0.58 0.56 0.54 0.50 0.48 0.47 0.45 0.42 0.42 0.40 0.42 0.48 0.50 0.49 0.49 0.48 0.48 0.49 0.50 0.50 0.50 0.51 0.51 0.54 0.60 0.65 0.69 0.76 0.77 0.78 0.79 0.78 0.70 0.68 0.69 0.70 0.70 0.73
0.73 0.67 0.63 0.60 0.59 0.56 0.53 0.51 0.48 0.46 0.43 0.47 0.41 0.38 0.38 0.44 0.45 0.47 0.50 0.47 0.46 0.47 0.46 0.45 0.46 0.48 0.48 0.49 0.53 0.56 0.61 0.65 0.69 0.78 0.82 0.83 0.81 0.79 0.70 0.65 0.66 0.68 0.69
0.63 0.59 0.57 0.55 0.53 0.49 0.48 0.47 0.44 0.40 0.41 0.44 0.37 0.35 0.29 0.30 0.36 0.36 0.35 0.36 0.37 0.40 0.41 0.41 0.40 0.41 0.42 0.43 0.47 0.51 0.57 0.60 0.64 0.68 0.71 0.80 0.86 0.85 0.79 0.70 0.65 0.67 0.67
0.60 0.59 0.56 0.54 0.53 0.52 0.48 0.48 0.45 0.40 0.36 0.39 0.40 0.33 0.25 0.22 0.27 0.29 0.28 0.29 0.31 0.31 0.31 0.31 0.31 0.35 0.36 0.37 0.39 0.43 0.49 0.56 0.60 0.64 0.70 0.68 0.75 0.80 0.81 0.75 0.67 0.64 0.64
0.60 0.60 0.58 0.55 0.52 0.51 0.47 0.44 0.43 0.37 0.36 0.31 0.34 0.34 0.36 0.36 0.28 0.23 0.30 0.29 0.29 0.28 0.29 0.31 0.32 0.34 0.35 0.37 0.35 0.37 0.38 0.45 0.55 0.61 0.66 0.71 0.71 0.75 0.75 0.73 0.69 0.64 0.62
0.58 0.55 0.51 0.50 0.46 0.45 0.41 0.40 0.39 0.37 0.36 0.30 0.29 0.29 0.29 0.30 0.34 0.30 0.22 0.25 0.27 0.28 0.30 0.27 0.30 0.34 0.36 0.37 0.36 0.36 0.34 0.35 0.45 0.52 0.64 0.67 0.74 0.74 0.74 0.69 0.68 0.66 0.64
0.52 0.48 0.46 0.44 0.44 0.43 0.41 0.40 0.37 0.34 0.29 0.28 0.28 0.27 0.26 0.24 0.23 0.24 0.21 0.21 0.20 0.21 0.22 0.29 0.30 0.31 0.38 0.38 0.35 0.33 0.34 0.37 0.44 0.46 0.53 0.68 0.69 0.74 0.74 0.73 0.70 0.65 0.71
0.42 0.39 0.41 0.42 0.42 0.39 0.41 0.42 0.37 0.37 0.32 0.29 0.27 0.24 0.25 0.23 0.24 0.22 0.20 0.17 0.16 0.17 0.18 0.19 0.23 0.27 0.34 0.36 0.36 0.34 0.37 0.39 0.43 0.47 0.51 0.57 0.66 0.71 0.73 0.72 0.66 0.62 0.69
0.37 0.39 0.40 0.40 0.42 0.42 0.41 0.37 0.37 0.34 0.32 0.28 0.25 0.24 0.24 0.23 0.23 0.21 0.18 0.16 0.13 0.14 0.16 0.15 0.18 0.19 0.29 0.35 0.40 0.36 0.37 0.42 0.43 0.44 0.50 0.54 0.58 0.64 0.66 0.64 0.57 0.54 0.59
0.30 0.37 0.42 0.41 0.52 0.43 0.45 0.42 0.34 0.29 0.28 0.27 0.27 0.26 0.25 0.24 0.24 0.22 0.22 0.21 0.19 0.13 0.13 0.16 0.16 0.19 0.21 0.32 0.40 0.38 0.38 0.42 0.42 0.43 0.48 0.51 0.58 0.62 0.64 0.66 0.62 0.57 0.55
0.33 0.39 0.42 0.44 0.44 0.42 0.39 0.34 0.28 0.26 0.25 0.27 0.26 0.24 0.23 0.23 0.23 0.23 0.23 0.22 0.21 0.18 0.15 0.18 0.18 0.19 0.19 0.24 0.34 0.41 0.38 0.42 0.45 0.45 0.46 0.48 0.54 0.54 0.60 0.66 0.66 0.62 0.61
0.35 0.39 0.40 0.40 0.37 0.33 0.28 0.26 0.22 0.24 0.24 0.24 0.22 0.21 0.21 0.22 0.21 0.21 0.21 0.19 0.18 0.19 0.17 0.18 0.20 0.20 0.19 0.22 0.27 0.38 0.41 0.37 0.42 0.42 0.43 0.44 0.45 0.51 0.57 0.58 0.59 0.58 0.57
0.32 0.36 0.34 0.35 0.34 0.27 0.25 0.23 0.23 0.24 0.21 0.20 0.20 0.20 0.21 0.22 0.20 0.19 0.19 0.19 0.20 0.20 0.21 0.19 0.21 0.20 0.20 0.26 0.25 0.27 0.37 0.41 0.35 0.40 0.43 0.42 0.40 0.42 0.54 0.56 0.57 0.56 0.54
0.31 0.33 0.36 0.34 0.25 0.24 0.25 0.25 0.25 0.22 0.21 0.20 0.21 0.21 0.21 0.21 0.19 0.19 0.20 0.22 0.22 0.23 0.25 0.25 0.23 0.26 0.23 0.26 0.26 0.26 0.29 0.34 0.38 0.37 0.39 0.42 0.40 0.40 0.43 0.56 0.54 0.52 0.49
0.32 0.33 0.33 0.29 0.24 0.25 0.26 0.26 0.26 0.23 0.22 0.22 0.23 0.23 0.22 0.21 0.19 0.21 0.23 0.23 0.24 0.24 0.23 0.24 0.24 0.24 0.26 0.24 0.26 0.22 0.21 0.25 0.28 0.31 0.35 0.37 0.39 0.38 0.42 0.52 0.56 0.49 0.45
0.32 0.37 0.32 0.25 0.24 0.27 0.27 0.27 0.27 0.25 0.22 0.22 0.23 0.22 0.22 0.22 0.23 0.25 0.25 0.24 0.24 0.24 0.23 0.23 0.22 0.23 0.25 0.25 0.22 0.24 0.21 0.18 0.21 0.25 0.27 0.30 0.33 0.35 0.36 0.49 0.53 0.52 0.47
0.33 0.30 0.25 0.25 0.27 0.29 0.29 0.30 0.29 0.25 0.23 0.21 0.19 0.20 0.20 0.20 0.22 0.25 0.25 0.26 0.26 0.23 0.22 0.22 0.21 0.21 0.22 0.25 0.27 0.25 0.24 0.20 0.15 0.23 0.23 0.24 0.30 0.30 0.31 0.39 0.48 0.48 0.45
0.34 0.33 0.31 0.31 0.31 0.29 0.30 0.31 0.27 0.23 0.19 0.17 0.17 0.17 0.17 0.20 0.24 0.25 0.25 0.25 0.26 0.26 0.27 0.25 0.22 0.22 0.23 0.24 0.25 0.24 0.25 0.23 0.19 0.19 0.20 0.17 0.24 0.25 0.31 0.32 0.40 0.42 0.43
0.33 0.33 0.32 0.29 0.29 0.29 0.29 0.27 0.22 0.18 0.17 0.17 0.17 0.18 0.18 0.21 0.24 0.24 0.26 0.26 0.24 0.25 0.25 0.24 0.23 0.23 0.25 0.26 0.26 0.25 0.24 0.24 0.23 0.21 0.22 0.15 0.19 0.21 0.26 0.31 0.34 0.36 0.40
0.32 0.30 0.29 0.29 0.28 0.25 0.24 0.21 0.18 0.17 0.17 0.17 0.18 0.19 0.20 0.23 0.24 0.26 0.25 0.24 0.23 0.23 0.25 0.25 0.25 0.25 0.24 0.25 0.28 0.27 0.22 0.21 0.18 0.19 0.21 0.19 0.17 0.17 0.20 0.24 0.27 0.33 0.36
0.27 0.28 0.27 0.24 0.22 0.21 0.21 0.19 0.18 0.17 0.16 0.17 0.18 0.19 0.21 0.24 0.25 0.25 0.25 0.23 0.21 0.22 0.23 0.23 0.23 0.24 0.24 0.24 0.24 0.24 0.24 0.21 0.20 0.18 0.21 0.19 0.18 0.18 0.15 0.21 0.23 0.24 0.27

GFSMA_prec_pwat_009.txt.gz
Precipitable_Water
1.10 1.03 1.05 1.03 0.97 0.94 0.90 0.84 0.81 0.78 0.73 0.69 0.68 0.64 0.58 0.54 0.52 0.53 0.56 0.60 0.64 0.69 0.73 0.76 0.77 0.76 0.76 0.71 0.72 0.69 0.72 0.73 0.71 0.72 0.73 0.75 0.74 0.79 0.89 1.03 1.15 1.33 1.46
1.17 1.12 1.04 0.97 0.95 0.94 0.90 0.84 0.78 0.72 0.65 0.62 0.60 0.58 0.54 0.51 0.51 0.51 0.53 0.54 0.52 0.56 0.61 0.64 0.68 0.72 0.75 0.74 0.68 0.68 0.68 0.68 0.72 0.70 0.70 0.72 0.75 0.72 0.75 0.84 1.01 1.16 1.32
1.12 1.04 1.02 0.98 0.96 0.91 0.83 0.75 0.69 0.66 0.61 0.57 0.53 0.52 0.49 0.49 0.49 0.52 0.51 0.50 0.49 0.49 0.51 0.53 0.56 0.58 0.62 0.66 0.67 0.68 0.70 0.71 0.67 0.73 0.72 0.72 0.71 0.73 0.73 0.72 0.76 0.95 1.15
1.09 1.03 0.94 0.87 0.83 0.75 0.73 0.71 0.64 0.57 0.55 0.53 0.50 0.49 0.49 0.49 0.49 0.55 0.52 0.49 0.47 0.46 0.46 0.47 0.47 0.48 0.51 0.55 0.59 0.64 0.66 0.71 0.74 0.71 0.71 0.74 0.73 0.70 0.71 0.71 0.72 0.77 0.91
0.93 0.86 0.80 0.76 0.76 0.72 0.65 0.60 0.57 0.54 0.51 0.49 0.45 0.46 0.45 0.43 0.50 0.52 0.51 0.51 0.51 0.50 0.48 0.46 0.46 0.46 0.46 0.47 0.51 0.55 0.61 0.67 0.71 0.75 0.78 0.71 0.75 0.76 0.75 0.70 0.73 0.72 0.74
0.79 0.73 0.69 0.66 0.63 0.59 0.56 0.54 0.50 0.49 0.48 0.45 0.41 0.42 0.41 0.42 0.49 0.51 0.50 0.50 0.50 0.49 0.47 0.45 0.43 0.41 0.42 0.44 0.46 0.48 0.54 0.59 0.64 0.68 0.76 0.85 0.77 0.74 0.77 0.76 0.71 0.69 0.70
0.66 0.65 0.62 0.59 0.57 0.54 0.53 0.50 0.47 0.44 0.43 0.46 0.40 0.38 0.35 0.39 0.43 0.45 0.44 0.43 0.40 0.39 0.37 0.36 0.34 0.33 0.34 0.37 0.38 0.42 0.47 0.53 0.61 0.62 0.64 0.73 0.87 0.82 0.81 0.81 0.75 0.65 0.65
0.63 0.61 0.61 0.59 0.58 0.55 0.53 0.49 0.44 0.40 0.42 0.42 0.32 0.29 0.24 0.26 0.32 0.37 0.39 0.37 0.35 0.33 0.32 0.31 0.31 0.30 0.30 0.29 0.30 0.35 0.37 0.44 0.50 0.58 0.63 0.64 0.70 0.81 0.82 0.84 0.81 0.70 0.63
0.62 0.60 0.59 0.56 0.54 0.52 0.45 0.43 0.41 0.38 0.33 0.38 0.37 0.29 0.24 0.22 0.30 0.32 0.33 0.35 0.35 0.32 0.32 0.31 0.29 0.29 0.31 0.32 0.31 0.31 0.31 0.35 0.39 0.47 0.56 0.63 0.66 0.70 0.81 0.83 0.86 0.81 0.69
0.61 0.59 0.56 0.52 0.47 0.45 0.42 0.40 0.39 0.37 0.35 0.31 0.34 0.37 0.34 0.33 0.25 0.22 0.28 0.29 0.31 0.26 0.27 0.30 0.25 0.28 0.29 0.32 0.34 0.34 0.32 0.31 0.33 0.39 0.48 0.53 0.63 0.66 0.74 0.82 0.80 0.76 0.70
0.59 0.54 0.50 0.44 0.39 0.38 0.38 0.36 0.34 0.32 0.35 0.33 0.32 0.30 0.31 0.30 0.31 0.27 0.19 0.20 0.22 0.23 0.25 0.24 0.25 0.22 0.23 0.29 0.32 0.32 0.32 0.31 0.31 0.35 0.44 0.51 0.55 0.64 0.69 0.77 0.84 0.73 0.67
0.49 0.45 0.40 0.37 0.37 0.37 0.38 0.40 0.38 0.39 0.33 0.31 0.29 0.27 0.25 0.24 0.23 0.24 0.21 0.19 0.17 0.18 0.20 0.23 0.23 0.20 0.17 0.22 0.29 0.31 0.33 0.34 0.33 0.36 0.43 0.49 0.53 0.59 0.65 0.75 0.79 0.78 0.71
0.31 0.31 0.36 0.36 0.40 0.40 0.41 0.43 0.41 0.37 0.31 0.28 0.26 0.25 0.25 0.23 0.24 0.23 0.21 0.18 0.17 0.17 0.18 0.20 0.21 0.21 0.19 0.18 0.26 0.29 0.34 0.34 0.35 0.41 0.44 0.49 0.50 0.57 0.63 0.71 0.78 0.80 0.79
0.23 0.26 0.31 0.37 0.41 0.44 0.42 0.46 0.40 0.35 0.31 0.28 0.26 0.27 0.25 0.25 0.27 0.25 0.21 0.20 0.16 0.15 0.16 0.17 0.20 0.22 0.23 0.21 0.19 0.25 0.34 0.35 0.38 0.43 0.42 0.43 0.49 0.55 0.58 0.59 0.64 0.74 0.75
0.25 0.29 0.35 0.38 0.43 0.45 0.42 0.41 0.35 0.28 0.25 0.25 0.26 0.27 0.25 0.25 0.25 0.24 0.23 0.23 0.20 0.15 0.14 0.15 0.15 0.20 0.21 0.22 0.21 0.22 0.31 0.36 0.39 0.44 0.45 0.45 0.48 0.53 0.57 0.57 0.57 0.58 0.57
0.28 0.34 0.38 0.42 0.45 0.41 0.36 0.31 0.27 0.26 0.24 0.25 0.25 0.24 0.23 0.22 0.23 0.24 0.24 0.24 0.22 0.18 0.13 0.16 0.17 0.19 0.21 0.21 0.23 0.21 0.28 0.35 0.39 0.42 0.46 0.47 0.46 0.48 0.54 0.60 0.62 0.58 0.62
0.28 0.34 0.40 0.42 0.39 0.35 0.37 0.27 0.25 0.25 0.24 0.24 0.25 0.23 0.21 0.23 0.22 0.23 0.22 0.20 0.18 0.18 0.16 0.17 0.20 0.22 0.24 0.25 0.23 0.23 0.30 0.32 0.40 0.38 0.44 0.46 0.43 0.44 0.48 0.56 0.60 0.64 0.60
0.29 0.34 0.37 0.37 0.34 0.37 0.36 0.25 0.25 0.25 0.25 0.25 0.24 0.22 0.22 0.23 0.22 0.23 0.21 0.19 0.19 0.21 0.21 0.18 0.22 0.24 0.25 0.27 0.26 0.27 0.31 0.30 0.37 0.42 0.38 0.44 0.45 0.42 0.43 0.48 0.54 0.57 0.60
0.29 0.31 0.34 0.34 0.34 0.31 0.26 0.26 0.27 0.27 0.27 0.27 0.26 0.23 0.22 0.22 0.21 0.21 0.20 0.19 0.21 0.24 0.24 0.23 0.21 0.23 0.25 0.26 0.27 0.28 0.30 0.30 0.31 0.36 0.40 0.39 0.42 0.43 0.40 0.43 0.50 0.54 0.56
0.30 0.32 0.32 0.37 0.36 0.30 0.25 0.27 0.28 0.27 0.28 0.28 0.26 0.24 0.22 0.21 0.20 0.20 0.21 0.22 0.24 0.24 0.24 0.23 0.22 0.22 0.23 0.24 0.28 0.25 0.25 0.27 0.25 0.27 0.30 0.34 0.38 0.40 0.41 0.40 0.50 0.51 0.54
0.33 0.32 0.33 0.29 0.27 0.27 0.27 0.29 0.29 0.29 0.30 0.27 0.24 0.21 0.19 0.20 0.20 0.20 0.21 0.23 0.24 0.23 0.23 0.22 0.20 0.21 0.21 0.21 0.24 0.27 0.26 0.26 0.25 0.25 0.25 0.29 0.33 0.35 0.39 0.43 0.47 0.54 0.52
0.33 0.33 0.32 0.31 0.30 0.31 0.32 0.32 0.30 0.29 0.26 0.20 0.16 0.16 0.17 0.18 0.19 0.21 0.23 0.25 0.25 0.24 0.23 0.22 0.23 0.19 0.19 0.22 0.24 0.26 0.26 0.25 0.20 0.27 0.23 0.24 0.28 0.31 0.34 0.37 0.42 0.52 0.52
0.33 0.34 0.32 0.33 0.33 0.33 0.31 0.30 0.28 0.23 0.19 0.17 0.16 0.16 0.17 0.18 0.20 0.21 0.23 0.25 0.27 0.26 0.26 0.24 0.22 0.21 0.20 0.22 0.24 0.24 0.24 0.24 0.24 0.26 0.24 0.20 0.26 0.24 0.30 0.33 0.37 0.47 0.49
0.29 0.32 0.31 0.31 0.28 0.28 0.27 0.24 0.22 0.19 0.17 0.17 0.17 0.18 0.18 0.19 0.21 0.22 0.24 0.24 0.24 0.23 0.25 0.25 0.25 0.24 0.23 0.23 0.23 0.25 0.24 0.24 0.25 0.26 0.26 0.19 0.22 0.23 0.25 0.29 0.35 0.35 0.46
0.28 0.28 0.28 0.27 0.24 0.23 0.22 0.22 0.19 0.18 0.17 0.17 0.18 0.19 0.19 0.19 0.21 0.23 0.22 0.20 0.17 0.21 0.26 0.25 0.25 0.25 0.25 0.25 0.25 0.24 0.23 0.22 0.20 0.21 0.23 0.22 0.19 0.20 0.23 0.23 0.29 0.34 0.36
0.26 0.26 0.26 0.25 0.24 0.22 0.22 0.21 0.19 0.18 0.17 0.17 0.17 0.17 0.19 0.20 0.21 0.20 0.19 0.19 0.17 0.22 0.23 0.23 0.22 0.23 0.24 0.24 0.25 0.25 0.23 0.21 0.22 0.20 0.23 0.21 0.20 0.20 0.17 0.22 0.23 0.28 0.33

GFSMA_prec_pwat_012.txt.gz
Precipitable_Water
1.22 1.25 1.18 1.15 1.10 1.05 1.01 0.97 0.92 0.84 0.79 0.74 0.73 0.67 0.62 0.59 0.58 0.55 0.59 0.59 0.55 0.57 0.59 0.61 0.64 0.68 0.72 0.75 0.78 0.78 0.76 0.77 0.73 0.73 0.68 0.68 0.71 0.74 0.75 0.86 0.94 1.07 1.22
1.23 1.29 1.17 1.10 1.09 1.07 1.01 0.92 0.85 0.76 0.72 0.71 0.66 0.63 0.58 0.56 0.54 0.56 0.55 0.61 0.54 0.51 0.52 0.52 0.51 0.52 0.57 0.62 0.66 0.70 0.74 0.75 0.76 0.74 0.76 0.71 0.68 0.67 0.69 0.75 0.82 0.93 1.09
1.24 1.16 1.14 1.13 1.04 0.97 0.88 0.78 0.75 0.74 0.70 0.64 0.61 0.59 0.57 0.56 0.54 0.57 0.56 0.54 0.54 0.53 0.50 0.50 0.49 0.49 0.48 0.49 0.52 0.59 0.65 0.69 0.72 0.75 0.74 0.77 0.73 0.71 0.66 0.65 0.73 0.79 0.91
1.14 1.08 1.02 0.94 0.83 0.75 0.72 0.71 0.67 0.61 0.60 0.59 0.55 0.53 0.53 0.53 0.49 0.59 0.59 0.55 0.54 0.52 0.54 0.50 0.49 0.47 0.47 0.48 0.49 0.49 0.53 0.61 0.69 0.70 0.74 0.76 0.81 0.78 0.75 0.68 0.65 0.72 0.78
0.91 0.85 0.78 0.73 0.70 0.68 0.67 0.64 0.60 0.58 0.53 0.52 0.48 0.44 0.45 0.47 0.45 0.50 0.58 0.56 0.55 0.52 0.51 0.50 0.45 0.43 0.41 0.43 0.45 0.46 0.49 0.51 0.56 0.65 0.69 0.73 0.78 0.82 0.79 0.75 0.72 0.66 0.70
0.73 0.69 0.69 0.68 0.65 0.61 0.61 0.61 0.57 0.55 0.51 0.49 0.45 0.41 0.44 0.41 0.40 0.46 0.54 0.52 0.49 0.46 0.44 0.43 0.42 0.38 0.34 0.33 0.34 0.37 0.43 0.45 0.50 0.55 0.61 0.65 0.72 0.77 0.82 0.81 0.79 0.71 0.64
0.68 0.67 0.64 0.65 0.64 0.61 0.60 0.58 0.52 0.48 0.45 0.46 0.39 0.33 0.33 0.33 0.44 0.48 0.48 0.46 0.45 0.44 0.42 0.38 0.36 0.35 0.32 0.30 0.30 0.32 0.34 0.37 0.43 0.44 0.49 0.58 0.63 0.68 0.79 0.83 0.82 0.79 0.67
0.69 0.66 0.67 0.63 0.61 0.56 0.55 0.52 0.43 0.37 0.36 0.44 0.41 0.34 0.26 0.27 0.31 0.40 0.45 0.40 0.41 0.43 0.38 0.35 0.35 0.32 0.31 0.32 0.33 0.33 0.35 0.36 0.34 0.36 0.40 0.43 0.54 0.63 0.67 0.78 0.83 0.83 0.80
0.69 0.66 0.64 0.60 0.55 0.50 0.42 0.43 0.42 0.39 0.35 0.37 0.41 0.34 0.26 0.22 0.27 0.31 0.34 0.33 0.37 0.35 0.35 0.31 0.35 0.30 0.29 0.30 0.30 0.35 0.37 0.34 0.32 0.32 0.32 0.38 0.43 0.53 0.64 0.68 0.78 0.84 0.83
0.67 0.63 0.58 0.53 0.46 0.41 0.39 0.41 0.39 0.38 0.37 0.30 0.33 0.34 0.34 0.31 0.26 0.24 0.29 0.33 0.30 0.29 0.29 0.29 0.33 0.29 0.26 0.24 0.25 0.32 0.34 0.29 0.29 0.31 0.32 0.34 0.38 0.47 0.53 0.65 0.72 0.82 0.84
0.60 0.56 0.50 0.44 0.40 0.39 0.40 0.40 0.39 0.37 0.39 0.35 0.33 0.33 0.33 0.29 0.27 0.24 0.21 0.23 0.25 0.25 0.25 0.25 0.26 0.28 0.27 0.25 0.21 0.21 0.28 0.28 0.28 0.28 0.31 0.32 0.37 0.43 0.50 0.54 0.64 0.76 0.86
0.38 0.34 0.34 0.41 0.41 0.40 0.41 0.39 0.39 0.40 0.41 0.39 0.34 0.30 0.26 0.24 0.23 0.23 0.21 0.20 0.19 0.20 0.23 0.25 0.25 0.25 0.26 0.25 0.23 0.22 0.25 0.26 0.26 0.28 0.32 0.36 0.38 0.43 0.48 0.54 0.54 0.65 0.76
0.27 0.26 0.29 0.32 0.39 0.41 0.41 0.46 0.47 0.44 0.36 0.33 0.31 0.26 0.26 0.26 0.27 0.26 0.24 0.21 0.19 0.19 0.21 0.23 0.23 0.24 0.24 0.25 0.25 0.26 0.23 0.20 0.27 0.27 0.32 0.40 0.39 0.39 0.49 0.55 0.60 0.63 0.71
0.28 0.30 0.33 0.36 0.40 0.44 0.45 0.46 0.48 0.39 0.35 0.33 0.29 0.29 0.29 0.28 0.27 0.26 0.24 0.21 0.18 0.18 0.20 0.19 0.21 0.21 0.21 0.22 0.22 0.22 0.23 0.23 0.29 0.31 0.31 0.40 0.41 0.42 0.46 0.53 0.61 0.71 0.79
0.29 0.32 0.39 0.41 0.44 0.47 0.48 0.47 0.40 0.34 0.32 0.29 0.29 0.29 0.27 0.27 0.27 0.24 0.24 0.24 0.22 0.17 0.16 0.17 0.16 0.19 0.21 0.22 0.23 0.24 0.24 0.27 0.26 0.33 0.30 0.39 0.43 0.44 0.47 0.54 0.61 0.59 0.65
0.30 0.32 0.38 0.42 0.47 0.45 0.48 0.41 0.34 0.32 0.29 0.28 0.28 0.28 0.28 0.25 0.25 0.25 0.25 0.24 0.23 0.20 0.16 0.18 0.17 0.20 0.23 0.23 0.27 0.27 0.27 0.25 0.24 0.32 0.31 0.40 0.46 0.44 0.43 0.47 0.62 0.59 0.56
0.30 0.30 0.33 0.38 0.40 0.43 0.37 0.35 0.39 0.30 0.28 0.29 0.30 0.30 0.29 0.28 0.26 0.25 0.24 0.24 0.22 0.21 0.17 0.16 0.20 0.23 0.24 0.25 0.27 0.28 0.29 0.28 0.29 0.37 0.34 0.37 0.46 0.45 0.43 0.44 0.50 0.58 0.63
0.31 0.31 0.32 0.35 0.37 0.37 0.35 0.37 0.34 0.28 0.28 0.29 0.30 0.29 0.28 0.29 0.26 0.24 0.23 0.23 0.22 0.22 0.20 0.17 0.22 0.23 0.24 0.25 0.26 0.27 0.28 0.28 0.36 0.36 0.38 0.36 0.40 0.43 0.43 0.42 0.43 0.52 0.57
0.32 0.34 0.34 0.34 0.34 0.35 0.36 0.32 0.29 0.29 0.30 0.31 0.30 0.30 0.30 0.27 0.23 0.22 0.21 0.21 0.21 0.22 0.23 0.23 0.22 0.24 0.24 0.25 0.25 0.27 0.26 0.29 0.34 0.37 0.34 0.34 0.39 0.40 0.41 0.41 0.41 0.46 0.52
0.32 0.34 0.34 0.34 0.35 0.33 0.32 0.29 0.29 0.30 0.32 0.32 0.32 0.31 0.27 0.22 0.20 0.20 0.19 0.20 0.21 0.22 0.24 0.23 0.22 0.22 0.23 0.23 0.24 0.23 0.26 0.30 0.29 0.34 0.30 0.26 0.31 0.35 0.38 0.41 0.43 0.47 0.50
0.32 0.35 0.31 0.31 0.30 0.29 0.29 0.31 0.32 0.33 0.32 0.30 0.28 0.22 0.19 0.19 0.18 0.19 0.19 0.20 0.21 0.22 0.23 0.22 0.22 0.22 0.23 0.22 0.21 0.22 0.24 0.25 0.29 0.34 0.30 0.27 0.30 0.37 0.39 0.42 0.43 0.45 0.52
0.32 0.34 0.35 0.35 0.33 0.32 0.33 0.33 0.30 0.29 0.27 0.22 0.18 0.18 0.18 0.18 0.19 0.20 0.21 0.22 0.23 0.22 0.23 0.22 0.22 0.22 0.22 0.23 0.23 0.23 0.25 0.24 0.21 0.33 0.30 0.26 0.31 0.29 0.36 0.37 0.41 0.43 0.48
0.32 0.31 0.34 0.36 0.33 0.34 0.29 0.27 0.25 0.23 0.21 0.19 0.18 0.17 0.17 0.18 0.20 0.20 0.21 0.23 0.25 0.25 0.23 0.21 0.22 0.22 0.22 0.23 0.22 0.21 0.21 0.23 0.24 0.26 0.30 0.25 0.26 0.26 0.30 0.32 0.35 0.40 0.46
0.30 0.30 0.31 0.32 0.31 0.28 0.25 0.23 0.22 0.22 0.19 0.18 0.18 0.18 0.18 0.19 0.20 0.21 0.21 0.21 0.21 0.21 0.20 0.23 0.24 0.24 0.25 0.25 0.25 0.24 0.23 0.23 0.24 0.25 0.26 0.22 0.25 0.25 0.30 0.32 0.32 0.35 0.44
0.29 0.29 0.30 0.29 0.27 0.26 0.25 0.22 0.21 0.21 0.20 0.19 0.20 0.19 0.17 0.18 0.19 0.19 0.19 0.19 0.20 0.20 0.22 0.26 0.25 0.25 0.24 0.23 0.24 0.23 0.21 0.20 0.21 0.21 0.23 0.24 0.23 0.24 0.26 0.29 0.31 0.32 0.36
0.28 0.27 0.26 0.26 0.25 0.26 0.23 0.22 0.21 0.21 0.20 0.20 0.20 0.17 0.16 0.17 0.19 0.19 0.19 0.20 0.19 0.19 0.19 0.24 0.24 0.23 0.23 0.24 0.26 0.25 0.23 0.20 0.21 0.20 0.23 0.21 0.21 0.23 0.21 0.25 0.28 0.29 0.34

GFSMA_prec_pwat_018.txt.gz
Precipitable_Water
1.21 1.20 1.09 1.09 1.12 1.15 1.11 1.08 1.02 0.96 0.88 0.79 0.77 0.75 0.70 0.69 0.67 0.65 0.69 0.68 0.66 0.65 0.65 0.64 0.62 0.60 0.59 0.59 0.57 0.55 0.54 0.57 0.65 0.72 0.76 0.81 0.81 0.76 0.75 0.72 0.70 0.64 0.74
1.16 1.10 1.08 1.06 1.08 1.06 1.01 0.93 0.80 0.77 0.73 0.70 0.66 0.66 0.66 0.64 0.62 0.62 0.64 0.66 0.65 0.67 0.67 0.67 0.63 0.59 0.57 0.57 0.57 0.57 0.56 0.55 0.54 0.56 0.63 0.71 0.76 0.77 0.77 0.78 0.74 0.74 0.65
1.11 1.07 1.04 0.98 0.94 0.90 0.78 0.72 0.70 0.67 0.64 0.62 0.59 0.59 0.57 0.56 0.52 0.50 0.53 0.55 0.62 0.68 0.69 0.64 0.61 0.58 0.55 0.52 0.52 0.52 0.53 0.53 0.55 0.54 0.55 0.60 0.66 0.72 0.75 0.76 0.78 0.78 0.76
0.97 0.91 0.84 0.79 0.74 0.67 0.67 0.66 0.65 0.64 0.62 0.59 0.54 0.49 0.50 0.51 0.49 0.45 0.51 0.53 0.57 0.68 0.68 0.65 0.60 0.55 0.53 0.49 0.47 0.45 0.46 0.49 0.52 0.52 0.54 0.55 0.55 0.59 0.67 0.74 0.76 0.78 0.81
0.74 0.69 0.69 0.71 0.70 0.69 0.69 0.69 0.67 0.64 0.58 0.51 0.43 0.41 0.46 0.46 0.47 0.44 0.43 0.44 0.48 0.62 0.65 0.66 0.61 0.56 0.54 0.48 0.44 0.41 0.42 0.47 0.48 0.50 0.51 0.49 0.49 0.51 0.54 0.60 0.71 0.77 0.79
0.70 0.71 0.73 0.71 0.72 0.70 0.68 0.66 0.61 0.58 0.53 0.46 0.39 0.36 0.40 0.46 0.44 0.41 0.45 0.50 0.57 0.61 0.59 0.58 0.55 0.51 0.47 0.46 0.44 0.42 0.44 0.42 0.46 0.50 0.48 0.44 0.42 0.42 0.43 0.49 0.55 0.67 0.77
0.71 0.72 0.74 0.74 0.72 0.67 0.63 0.59 0.50 0.44 0.42 0.42 0.37 0.36 0.36 0.37 0.38 0.37 0.41 0.41 0.43 0.49 0.50 0.50 0.47 0.46 0.42 0.42 0.41 0.40 0.37 0.43 0.47 0.43 0.42 0.40 0.39 0.37 0.37 0.39 0.45 0.52 0.64
0.74 0.74 0.74 0.70 0.68 0.61 0.54 0.47 0.41 0.39 0.42 0.44 0.36 0.32 0.28 0.32 0.34 0.37 0.37 0.38 0.38 0.40 0.43 0.43 0.42 0.39 0.37 0.36 0.34 0.34 0.35 0.37 0.35 0.35 0.35 0.36 0.37 0.37 0.37 0.37 0.38 0.43 0.51
0.76 0.75 0.73 0.67 0.57 0.53 0.45 0.42 0.41 0.42 0.40 0.41 0.38 0.34 0.27 0.25 0.30 0.34 0.32 0.31 0.29 0.31 0.33 0.34 0.34 0.34 0.32 0.32 0.28 0.31 0.31 0.30 0.31 0.29 0.30 0.31 0.31 0.34 0.36 0.38 0.37 0.40 0.41
0.78 0.67 0.53 0.45 0.41 0.41 0.41 0.43 0.44 0.43 0.41 0.36 0.37 0.37 0.36 0.34 0.26 0.22 0.27 0.26 0.27 0.27 0.27 0.27 0.28 0.29 0.29 0.27 0.27 0.28 0.29 0.31 0.29 0.29 0.28 0.29 0.28 0.31 0.35 0.37 0.41 0.40 0.41
0.61 0.47 0.41 0.37 0.35 0.35 0.36 0.41 0.44 0.44 0.42 0.39 0.38 0.36 0.32 0.31 0.30 0.24 0.18 0.21 0.24 0.24 0.25 0.29 0.29 0.28 0.28 0.28 0.27 0.27 0.29 0.29 0.27 0.27 0.26 0.26 0.29 0.30 0.33 0.35 0.40 0.44 0.42
0.50 0.45 0.39 0.36 0.38 0.39 0.38 0.43 0.45 0.44 0.44 0.43 0.42 0.39 0.34 0.30 0.26 0.24 0.22 0.21 0.20 0.22 0.25 0.28 0.28 0.29 0.28 0.27 0.27 0.26 0.26 0.25 0.24 0.24 0.24 0.23 0.25 0.33 0.32 0.32 0.37 0.44 0.45
0.43 0.39 0.36 0.36 0.38 0.41 0.44 0.45 0.44 0.43 0.41 0.44 0.43 0.38 0.35 0.32 0.30 0.27 0.25 0.24 0.22 0.23 0.23 0.25 0.26 0.27 0.27 0.26 0.25 0.25 0.24 0.24 0.24 0.24 0.25 0.27 0.27 0.31 0.33 0.30 0.35 0.42 0.43
0.37 0.36 0.36 0.35 0.38 0.45 0.46 0.44 0.42 0.45 0.45 0.44 0.41 0.39 0.37 0.32 0.33 0.29 0.26 0.23 0.20 0.21 0.24 0.24 0.27 0.27 0.27 0.26 0.25 0.25 0.25 0.25 0.25 0.26 0.28 0.27 0.29 0.28 0.28 0.29 0.32 0.40 0.39
0.36 0.36 0.36 0.35 0.37 0.42 0.45 0.43 0.47 0.43 0.44 0.43 0.41 0.40 0.38 0.34 0.33 0.33 0.32 0.29 0.25 0.19 0.21 0.23 0.24 0.26 0.27 0.26 0.25 0.25 0.25 0.25 0.27 0.27 0.26 0.26 0.28 0.31 0.29 0.30 0.32 0.37 0.38
0.38 0.38 0.37 0.38 0.37 0.35 0.42 0.47 0.46 0.42 0.40 0.39 0.40 0.40 0.36 0.35 0.32 0.35 0.32 0.31 0.29 0.26 0.21 0.23 0.23 0.25 0.25 0.25 0.24 0.24 0.24 0.25 0.25 0.25 0.26 0.27 0.30 0.31 0.32 0.33 0.32 0.34 0.37
0.40 0.40 0.39 0.38 0.37 0.36 0.38 0.35 0.33 0.36 0.34 0.35 0.40 0.37 0.36 0.36 0.34 0.33 0.31 0.29 0.26 0.23 0.19 0.20 0.21 0.22 0.22 0.22 0.21 0.24 0.24 0.24 0.25 0.28 0.29 0.28 0.32 0.36 0.36 0.36 0.32 0.31 0.36
0.45 0.41 0.38 0.37 0.38 0.38 0.38 0.37 0.36 0.38 0.34 0.35 0.34 0.35 0.35 0.34 0.34 0.31 0.29 0.24 0.22 0.20 0.18 0.16 0.19 0.20 0.20 0.22 0.23 0.23 0.25 0.27 0.26 0.26 0.27 0.32 0.34 0.36 0.37 0.36 0.33 0.31 0.37
0.45 0.39 0.37 0.36 0.38 0.34 0.32 0.32 0.35 0.37 0.35 0.33 0.34 0.34 0.33 0.32 0.28 0.26 0.22 0.19 0.18 0.18 0.19 0.18 0.17 0.20 0.21 0.22 0.22 0.25 0.25 0.27 0.28 0.28 0.28 0.32 0.35 0.41 0.39 0.35 0.34 0.33 0.38
0.44 0.38 0.37 0.37 0.40 0.37 0.35 0.34 0.34 0.33 0.32 0.32 0.32 0.31 0.29 0.26 0.21 0.19 0.17 0.17 0.17 0.18 0.18 0.18 0.18 0.18 0.20 0.21 0.22 0.20 0.21 0.24 0.25 0.26 0.28 0.31 0.35 0.40 0.40 0.35 0.33 0.36 0.38
0.40 0.39 0.36 0.38 0.39 0.40 0.39 0.37 0.34 0.30 0.29 0.27 0.27 0.26 0.23 0.21 0.19 0.18 0.18 0.18 0.19 0.18 0.17 0.17 0.18 0.19 0.20 0.19 0.18 0.23 0.25 0.25 0.25 0.24 0.26 0.29 0.31 0.38 0.37 0.37 0.42 0.42 0.38
0.39 0.38 0.38 0.36 0.38 0.42 0.39 0.38 0.34 0.26 0.23 0.22 0.22 0.21 0.20 0.20 0.20 0.20 0.21 0.21 0.20 0.18 0.17 0.19 0.19 0.20 0.21 0.22 0.23 0.24 0.23 0.21 0.19 0.25 0.23 0.23 0.29 0.33 0.37 0.39 0.43 0.40 0.36
0.38 0.39 0.37 0.37 0.36 0.39 0.36 0.36 0.29 0.25 0.24 0.24 0.22 0.19 0.19 0.20 0.21 0.20 0.19 0.18 0.17 0.20 0.21 0.20 0.20 0.22 0.22 0.23 0.23 0.21 0.20 0.18 0.18 0.21 0.21 0.18 0.23 0.26 0.32 0.34 0.41 0.37 0.34
0.37 0.36 0.36 0.36 0.36 0.37 0.36 0.33 0.29 0.26 0.26 0.24 0.22 0.21 0.20 0.20 0.19 0.18 0.17 0.14 0.16 0.18 0.20 0.22 0.21 0.20 0.20 0.23 0.23 0.23 0.21 0.20 0.20 0.20 0.20 0.17 0.23 0.23 0.27 0.28 0.32 0.33 0.32
0.35 0.35 0.35 0.34 0.34 0.32 0.32 0.30 0.28 0.26 0.25 0.23 0.23 0.22 0.22 0.20 0.19 0.18 0.16 0.14 0.15 0.16 0.21 0.20 0.17 0.20 0.24 0.26 0.26 0.26 0.21 0.20 0.19 0.19 0.22 0.22 0.23 0.24 0.25 0.25 0.25 0.28 0.30
0.33 0.34 0.34 0.33 0.32 0.30 0.30 0.29 0.28 0.26 0.23 0.22 0.22 0.21 0.21 0.19 0.19 0.19 0.15 0.15 0.14 0.16 0.17 0.18 0.21 0.24 0.26 0.27 0.27 0.30 0.26 0.21 0.21 0.20 0.23 0.23 0.25 0.28 0.21 0.24 0.26 0.30 0.30

GFSMA_prec_pwat_021.txt.gz
Precipitable_Water
1.12 1.11 1.07 1.04 0.99 1.02 0.98 0.96 0.91 0.88 0.74 0.67 0.65 0.63 0.62 0.62 0.61 0.59 0.65 0.66 0.65 0.65 0.67 0.71 0.71 0.67 0.63 0.60 0.57 0.55 0.56 0.58 0.61 0.62 0.61 0.64 0.70 0.76 0.79 0.82 0.78 0.79 0.79
1.03 0.99 0.95 0.95 0.97 0.95 0.93 0.83 0.72 0.65 0.62 0.62 0.61 0.60 0.56 0.55 0.51 0.50 0.53 0.59 0.62 0.63 0.66 0.66 0.65 0.66 0.63 0.59 0.57 0.55 0.55 0.54 0.54 0.58 0.59 0.62 0.60 0.60 0.68 0.72 0.79 0.79 0.79
1.02 0.96 0.91 0.91 0.84 0.77 0.71 0.64 0.64 0.64 0.62 0.62 0.58 0.52 0.46 0.50 0.48 0.46 0.47 0.49 0.57 0.60 0.61 0.63 0.63 0.64 0.62 0.59 0.56 0.53 0.51 0.50 0.53 0.54 0.54 0.55 0.57 0.57 0.55 0.61 0.66 0.74 0.79
0.89 0.84 0.77 0.67 0.65 0.64 0.65 0.65 0.65 0.62 0.61 0.58 0.49 0.42 0.43 0.43 0.45 0.44 0.44 0.44 0.53 0.57 0.61 0.61 0.60 0.62 0.60 0.57 0.57 0.54 0.51 0.54 0.51 0.49 0.52 0.52 0.50 0.50 0.52 0.52 0.54 0.62 0.71
0.72 0.67 0.65 0.66 0.69 0.69 0.68 0.66 0.63 0.60 0.53 0.45 0.41 0.39 0.36 0.42 0.41 0.41 0.38 0.41 0.53 0.63 0.63 0.65 0.60 0.56 0.54 0.54 0.53 0.51 0.50 0.48 0.46 0.49 0.53 0.49 0.45 0.43 0.44 0.45 0.47 0.50 0.58
0.66 0.68 0.70 0.72 0.73 0.71 0.67 0.63 0.57 0.49 0.42 0.40 0.38 0.37 0.37 0.38 0.40 0.38 0.37 0.40 0.44 0.46 0.56 0.53 0.50 0.50 0.50 0.48 0.47 0.47 0.47 0.45 0.48 0.50 0.44 0.42 0.42 0.41 0.39 0.40 0.41 0.43 0.48
0.70 0.70 0.71 0.72 0.73 0.68 0.62 0.53 0.43 0.38 0.37 0.40 0.36 0.35 0.33 0.31 0.33 0.35 0.37 0.35 0.35 0.39 0.40 0.42 0.42 0.41 0.41 0.41 0.40 0.39 0.40 0.44 0.40 0.40 0.39 0.35 0.35 0.36 0.36 0.36 0.39 0.40 0.41
0.73 0.74 0.73 0.73 0.68 0.58 0.50 0.44 0.40 0.36 0.38 0.41 0.34 0.32 0.25 0.27 0.32 0.34 0.34 0.34 0.32 0.33 0.35 0.36 0.36 0.38 0.37 0.35 0.35 0.34 0.34 0.34 0.29 0.29 0.32 0.34 0.32 0.31 0.33 0.34 0.37 0.38 0.41
0.76 0.71 0.68 0.65 0.55 0.51 0.45 0.41 0.40 0.39 0.36 0.40 0.40 0.33 0.26 0.23 0.26 0.31 0.30 0.28 0.26 0.26 0.27 0.28 0.30 0.30 0.31 0.31 0.31 0.31 0.31 0.30 0.31 0.30 0.30 0.32 0.33 0.32 0.30 0.32 0.36 0.38 0.40
0.65 0.64 0.64 0.58 0.48 0.41 0.35 0.35 0.40 0.40 0.41 0.36 0.39 0.39 0.36 0.32 0.23 0.21 0.27 0.28 0.28 0.26 0.23 0.25 0.27 0.28 0.29 0.30 0.29 0.30 0.30 0.30 0.27 0.27 0.28 0.27 0.29 0.29 0.30 0.30 0.32 0.37 0.39
0.62 0.61 0.57 0.42 0.36 0.36 0.36 0.37 0.42 0.44 0.45 0.41 0.38 0.37 0.34 0.33 0.33 0.26 0.21 0.23 0.26 0.25 0.24 0.24 0.26 0.27 0.28 0.28 0.28 0.28 0.28 0.27 0.26 0.26 0.26 0.26 0.27 0.27 0.28 0.29 0.33 0.35 0.37
0.61 0.52 0.41 0.40 0.39 0.38 0.40 0.42 0.45 0.46 0.44 0.43 0.41 0.38 0.35 0.32 0.30 0.27 0.24 0.23 0.20 0.21 0.25 0.25 0.26 0.27 0.27 0.25 0.27 0.26 0.26 0.25 0.25 0.25 0.25 0.25 0.25 0.27 0.29 0.31 0.33 0.34 0.35
0.51 0.40 0.39 0.39 0.37 0.39 0.44 0.46 0.45 0.43 0.41 0.40 0.40 0.38 0.38 0.36 0.35 0.31 0.27 0.22 0.20 0.21 0.22 0.24 0.25 0.26 0.28 0.27 0.27 0.28 0.26 0.24 0.23 0.24 0.26 0.26 0.26 0.27 0.28 0.29 0.31 0.31 0.32
0.43 0.41 0.40 0.39 0.36 0.39 0.46 0.46 0.43 0.42 0.44 0.42 0.40 0.40 0.40 0.39 0.38 0.34 0.29 0.25 0.20 0.21 0.23 0.23 0.26 0.27 0.27 0.28 0.27 0.27 0.25 0.24 0.24 0.24 0.24 0.24 0.24 0.25 0.26 0.29 0.31 0.30 0.31
0.44 0.41 0.41 0.37 0.37 0.37 0.40 0.45 0.43 0.44 0.43 0.42 0.41 0.43 0.41 0.40 0.39 0.37 0.33 0.31 0.27 0.21 0.20 0.22 0.21 0.25 0.25 0.25 0.25 0.24 0.23 0.23 0.23 0.22 0.21 0.23 0.26 0.28 0.30 0.31 0.32 0.31 0.32
0.48 0.43 0.41 0.39 0.38 0.39 0.39 0.42 0.44 0.42 0.40 0.39 0.40 0.40 0.39 0.40 0.39 0.38 0.34 0.32 0.30 0.26 0.20 0.22 0.19 0.21 0.23 0.22 0.23 0.22 0.21 0.21 0.21 0.22 0.24 0.26 0.27 0.29 0.30 0.31 0.34 0.33 0.34
0.46 0.44 0.41 0.40 0.39 0.42 0.42 0.39 0.39 0.38 0.36 0.39 0.41 0.40 0.38 0.38 0.36 0.35 0.34 0.31 0.28 0.26 0.20 0.18 0.18 0.19 0.19 0.19 0.19 0.20 0.22 0.22 0.25 0.26 0.26 0.26 0.28 0.31 0.31 0.33 0.35 0.35 0.36
0.47 0.44 0.44 0.42 0.41 0.41 0.39 0.35 0.35 0.37 0.38 0.36 0.36 0.36 0.35 0.36 0.34 0.32 0.29 0.26 0.25 0.21 0.16 0.14 0.15 0.16 0.17 0.19 0.19 0.19 0.21 0.23 0.24 0.26 0.26 0.28 0.28 0.30 0.32 0.34 0.37 0.37 0.34
0.50 0.50 0.46 0.39 0.39 0.39 0.37 0.39 0.38 0.36 0.36 0.35 0.33 0.32 0.33 0.31 0.27 0.25 0.22 0.19 0.17 0.16 0.16 0.15 0.14 0.16 0.17 0.18 0.18 0.21 0.21 0.21 0.24 0.25 0.25 0.26 0.28 0.30 0.33 0.34 0.38 0.37 0.35
0.51 0.47 0.44 0.39 0.38 0.41 0.43 0.42 0.41 0.38 0.35 0.33 0.32 0.31 0.28 0.24 0.21 0.19 0.18 0.17 0.17 0.16 0.17 0.15 0.15 0.16 0.18 0.20 0.21 0.20 0.21 0.23 0.22 0.24 0.26 0.30 0.28 0.28 0.30 0.36 0.40 0.35 0.34
0.47 0.44 0.40 0.42 0.43 0.44 0.43 0.41 0.38 0.34 0.33 0.29 0.25 0.24 0.24 0.22 0.20 0.19 0.17 0.18 0.18 0.17 0.16 0.15 0.16 0.17 0.18 0.19 0.20 0.23 0.20 0.21 0.21 0.21 0.21 0.23 0.22 0.23 0.27 0.36 0.39 0.39 0.41
0.44 0.39 0.45 0.44 0.42 0.43 0.42 0.38 0.37 0.33 0.29 0.25 0.24 0.24 0.22 0.19 0.19 0.20 0.21 0.21 0.20 0.16 0.13 0.16 0.17 0.17 0.19 0.21 0.21 0.19 0.20 0.18 0.16 0.21 0.19 0.17 0.21 0.19 0.23 0.33 0.39 0.41 0.40
0.42 0.44 0.41 0.41 0.41 0.41 0.38 0.37 0.35 0.31 0.27 0.27 0.25 0.23 0.21 0.21 0.20 0.20 0.20 0.18 0.16 0.15 0.16 0.17 0.17 0.18 0.18 0.19 0.19 0.19 0.20 0.20 0.19 0.20 0.20 0.17 0.20 0.18 0.23 0.30 0.32 0.35 0.36
0.41 0.39 0.39 0.39 0.37 0.36 0.36 0.36 0.34 0.30 0.28 0.28 0.26 0.24 0.21 0.20 0.20 0.20 0.18 0.16 0.15 0.15 0.15 0.18 0.19 0.18 0.18 0.20 0.24 0.24 0.23 0.23 0.22 0.22 0.23 0.18 0.20 0.19 0.24 0.28 0.29 0.30 0.31
0.39 0.37 0.37 0.35 0.33 0.33 0.34 0.33 0.31 0.29 0.28 0.27 0.26 0.24 0.22 0.20 0.21 0.19 0.17 0.17 0.14 0.15 0.18 0.18 0.19 0.21 0.23 0.26 0.27 0.27 0.23 0.22 0.18 0.19 0.23 0.22 0.21 0.22 0.23 0.24 0.27 0.29 0.28
0.35 0.34 0.32 0.32 0.31 0.31 0.32 0.31 0.29 0.28 0.27 0.25 0.24 0.22 0.22 0.20 0.20 0.20 0.19 0.15 0.13 0.15 0.17 0.18 0.19 0.19 0.23 0.26 0.27 0.26 0.24 0.21 0.21 0.20 0.24 0.22 0.22 0.23 0.20 0.27 0.27 0.29 0.29

GFSMA_prec_pwat_024.txt.gz
Precipitable_Water
1.07 1.07 1.03 0.98 0.95 0.90 0.88 0.88 0.84 0.74 0.68 0.63 0.63 0.61 0.59 0.57 0.54 0.53 0.54 0.60 0.63 0.65 0.68 0.71 0.67 0.65 0.64 0.61 0.62 0.61 0.58 0.58 0.58 0.59 0.60 0.59 0.59 0.59 0.62 0.66 0.69 0.74 0.76
0.97 0.95 0.93 0.91 0.88 0.89 0.83 0.75 0.69 0.64 0.61 0.61 0.59 0.56 0.51 0.45 0.44 0.45 0.48 0.50 0.58 0.62 0.62 0.64 0.65 0.65 0.64 0.63 0.60 0.59 0.58 0.55 0.58 0.55 0.56 0.58 0.54 0.54 0.55 0.55 0.58 0.64 0.69
0.93 0.88 0.88 0.84 0.82 0.74 0.65 0.63 0.63 0.64 0.62 0.59 0.55 0.52 0.43 0.42 0.44 0.43 0.44 0.46 0.55 0.57 0.60 0.64 0.63 0.61 0.61 0.61 0.60 0.59 0.60 0.61 0.56 0.54 0.57 0.54 0.52 0.48 0.45 0.49 0.51 0.53 0.58
0.84 0.82 0.75 0.67 0.64 0.61 0.63 0.65 0.65 0.61 0.60 0.56 0.48 0.43 0.37 0.40 0.42 0.40 0.39 0.44 0.50 0.57 0.61 0.59 0.61 0.59 0.57 0.56 0.55 0.55 0.58 0.57 0.54 0.53 0.57 0.52 0.49 0.46 0.44 0.41 0.42 0.47 0.50
0.76 0.68 0.63 0.61 0.63 0.65 0.67 0.67 0.64 0.61 0.53 0.44 0.40 0.39 0.38 0.39 0.39 0.39 0.37 0.36 0.43 0.55 0.57 0.57 0.52 0.50 0.49 0.48 0.49 0.51 0.51 0.50 0.50 0.51 0.52 0.48 0.45 0.43 0.42 0.40 0.40 0.40 0.42
0.67 0.63 0.61 0.63 0.68 0.69 0.69 0.66 0.59 0.50 0.43 0.39 0.37 0.37 0.39 0.38 0.38 0.37 0.35 0.34 0.37 0.38 0.41 0.42 0.41 0.42 0.43 0.44 0.43 0.43 0.44 0.45 0.50 0.44 0.43 0.42 0.40 0.39 0.38 0.38 0.39 0.39 0.40
0.63 0.64 0.66 0.70 0.73 0.71 0.66 0.55 0.50 0.43 0.37 0.40 0.37 0.36 0.36 0.36 0.36 0.36 0.35 0.34 0.33 0.33 0.34 0.35 0.36 0.38 0.36 0.36 0.36 0.37 0.37 0.40 0.41 0.40 0.37 0.38 0.36 0.35 0.36 0.36 0.36 0.37 0.40
0.66 0.70 0.72 0.71 0.69 0.66 0.57 0.53 0.45 0.38 0.38 0.41 0.35 0.34 0.30 0.32 0.34 0.34 0.31 0.30 0.30 0.31 0.30 0.30 0.31 0.31 0.31 0.31 0.32 0.34 0.35 0.35 0.36 0.36 0.33 0.32 0.32 0.31 0.32 0.33 0.33 0.35 0.37
0.71 0.71 0.68 0.65 0.63 0.58 0.46 0.40 0.42 0.41 0.36 0.41 0.41 0.36 0.29 0.25 0.29 0.32 0.29 0.28 0.29 0.29 0.29 0.30 0.29 0.29 0.30 0.30 0.30 0.31 0.32 0.32 0.32 0.31 0.29 0.30 0.31 0.32 0.31 0.30 0.31 0.32 0.34
0.71 0.70 0.68 0.65 0.61 0.45 0.38 0.38 0.41 0.41 0.41 0.38 0.42 0.42 0.40 0.35 0.27 0.24 0.31 0.32 0.33 0.31 0.30 0.28 0.26 0.26 0.27 0.27 0.27 0.28 0.28 0.28 0.28 0.29 0.29 0.29 0.29 0.31 0.30 0.28 0.28 0.31 0.33
0.70 0.67 0.64 0.62 0.47 0.40 0.40 0.41 0.41 0.42 0.44 0.43 0.42 0.40 0.38 0.36 0.34 0.29 0.25 0.29 0.31 0.30 0.28 0.26 0.25 0.25 0.25 0.25 0.25 0.25 0.30 0.31 0.30 0.28 0.28 0.27 0.26 0.27 0.28 0.29 0.28 0.29 0.32
0.67 0.64 0.62 0.48 0.42 0.41 0.40 0.43 0.45 0.44 0.43 0.43 0.43 0.41 0.36 0.33 0.32 0.31 0.28 0.27 0.26 0.27 0.27 0.26 0.25 0.25 0.25 0.24 0.26 0.27 0.29 0.28 0.28 0.28 0.28 0.28 0.26 0.26 0.25 0.27 0.28 0.30 0.30
0.65 0.60 0.54 0.46 0.42 0.46 0.46 0.49 0.46 0.44 0.46 0.44 0.44 0.41 0.40 0.38 0.38 0.35 0.34 0.30 0.26 0.26 0.25 0.29 0.28 0.28 0.26 0.25 0.25 0.27 0.27 0.27 0.27 0.27 0.27 0.26 0.25 0.22 0.22 0.24 0.27 0.29 0.30
0.62 0.55 0.60 0.45 0.45 0.41 0.43 0.46 0.44 0.46 0.45 0.43 0.43 0.41 0.39 0.41 0.43 0.42 0.36 0.29 0.25 0.25 0.27 0.26 0.28 0.27 0.26 0.25 0.24 0.25 0.25 0.24 0.24 0.24 0.23 0.21 0.21 0.23 0.26 0.29 0.30 0.31 0.32
0.63 0.61 0.46 0.45 0.45 0.40 0.40 0.41 0.43 0.45 0.45 0.41 0.40 0.39 0.39 0.40 0.41 0.40 0.37 0.36 0.30 0.22 0.22 0.26 0.24 0.26 0.25 0.24 0.21 0.21 0.21 0.20 0.21 0.20 0.20 0.24 0.26 0.27 0.27 0.28 0.30 0.31 0.31
0.59 0.49 0.49 0.45 0.41 0.40 0.43 0.44 0.45 0.45 0.41 0.39 0.40 0.40 0.42 0.42 0.41 0.39 0.36 0.35 0.33 0.29 0.23 0.26 0.24 0.22 0.19 0.17 0.18 0.19 0.19 0.19 0.19 0.22 0.23 0.25 0.26 0.27 0.28 0.29 0.30 0.31 0.32
0.61 0.54 0.47 0.48 0.45 0.45 0.43 0.41 0.41 0.39 0.38 0.40 0.41 0.40 0.41 0.40 0.37 0.35 0.35 0.33 0.30 0.27 0.22 0.20 0.18 0.16 0.15 0.15 0.16 0.18 0.19 0.19 0.21 0.21 0.23 0.25 0.26 0.25 0.28 0.28 0.30 0.31 0.31
0.59 0.53 0.50 0.48 0.46 0.42 0.41 0.39 0.39 0.41 0.39 0.39 0.39 0.37 0.35 0.36 0.34 0.32 0.29 0.26 0.23 0.20 0.17 0.13 0.15 0.15 0.15 0.16 0.17 0.18 0.19 0.21 0.21 0.23 0.24 0.22 0.23 0.25 0.28 0.29 0.29 0.31 0.32
0.56 0.53 0.51 0.49 0.46 0.41 0.40 0.43 0.43 0.41 0.40 0.38 0.37 0.34 0.33 0.31 0.27 0.25 0.22 0.19 0.18 0.18 0.17 0.16 0.14 0.15 0.15 0.17 0.18 0.20 0.21 0.22 0.23 0.22 0.21 0.21 0.23 0.28 0.27 0.26 0.29 0.32 0.35
0.55 0.54 0.50 0.48 0.42 0.44 0.45 0.42 0.41 0.41 0.40 0.36 0.33 0.33 0.29 0.24 0.22 0.21 0.19 0.17 0.17 0.17 0.17 0.15 0.13 0.13 0.15 0.18 0.20 0.19 0.19 0.20 0.18 0.20 0.20 0.21 0.23 0.24 0.24 0.23 0.26 0.32 0.39
0.55 0.51 0.49 0.43 0.46 0.44 0.42 0.43 0.40 0.39 0.37 0.33 0.32 0.28 0.25 0.24 0.23 0.20 0.18 0.18 0.19 0.17 0.15 0.13 0.12 0.13 0.15 0.16 0.18 0.20 0.18 0.18 0.20 0.21 0.20 0.22 0.21 0.20 0.21 0.20 0.24 0.33 0.37
0.54 0.51 0.45 0.45 0.42 0.42 0.42 0.41 0.39 0.36 0.35 0.32 0.28 0.27 0.26 0.25 0.22 0.21 0.21 0.21 0.19 0.16 0.13 0.12 0.13 0.13 0.15 0.17 0.18 0.17 0.17 0.18 0.17 0.22 0.22 0.20 0.21 0.19 0.19 0.20 0.24 0.31 0.34
0.53 0.48 0.44 0.42 0.41 0.39 0.37 0.37 0.36 0.34 0.32 0.30 0.27 0.26 0.25 0.25 0.23 0.20 0.20 0.20 0.18 0.17 0.15 0.14 0.13 0.15 0.15 0.16 0.19 0.20 0.21 0.21 0.20 0.22 0.23 0.18 0.21 0.19 0.21 0.21 0.24 0.29 0.32
0.51 0.44 0.41 0.39 0.34 0.34 0.34 0.34 0.33 0.33 0.30 0.30 0.29 0.27 0.26 0.24 0.22 0.20 0.19 0.18 0.17 0.17 0.14 0.16 0.17 0.17 0.18 0.20 0.23 0.25 0.25 0.24 0.23 0.23 0.25 0.18 0.21 0.20 0.22 0.24 0.26 0.28 0.31
0.45 0.41 0.36 0.33 0.30 0.29 0.31 0.32 0.32 0.30 0.28 0.28 0.29 0.28 0.26 0.22 0.21 0.21 0.19 0.16 0.16 0.14 0.16 0.18 0.19 0.20 0.19 0.21 0.25 0.26 0.22 0.20 0.18 0.19 0.24 0.23 0.22 0.21 0.22 0.25 0.27 0.31 0.32
0.40 0.35 0.32 0.29 0.29 0.28 0.30 0.31 0.30 0.29 0.27 0.26 0.28 0.27 0.25 0.22 0.21 0.20 0.19 0.17 0.13 0.13 0.15 0.17 0.18 0.19 0.19 0.18 0.23 0.24 0.24 0.20 0.20 0.18 0.23 0.22 0.23 0.23 0.18 0.25 0.25 0.28 0.29